Location: Ammerl�gen
(47.2167°N, 9.6000°E)
Time: 13:13:50
(UTC+00:00)

RS-15 - Pass Details

Date: 08 December 2021
Orbit: 1882 x 2162 km, 64.8° (Epoch: 22 January)

Event Time Altitude Azimuth Distance (km) Brightness Sun altitude
Exits shadow 04:40:42 30° 287° (WNW) 3,214 8.5 -21.9°
Maximum altitude 04:45:55 43° 334° (NNW) 2,755 8.5 -21.0°
Drops below altitude 10° 04:57:25 10° 44° (NE) 4,675 10.4 -19.1°
Sets 05:01:19 0° 51° (NE) 5,692 11.0 -18.5°
